This is the latest recevied weather packets stored in our database for station/object WX6HNX-6. If no packets are shown the sender has not sent any weather packets the latest 10 day(s).
| Time | Temp. | Humidity | Pressure | Rain* | Wind** | Luminosity | Snow |
|---|---|---|---|---|---|---|---|
| 1777754404 | 33.89° C | 17% | 1009.7 hPa | 0 mm | - | - | - |
| 1777753803 | 32.78° C | 19% | 1009.9 hPa | 0 mm | - | - | - |
| 1777753504 | 31.67° C | 22% | 1009.9 hPa | 0 mm | - | - | - |
| 1777753209 | 31.67° C | 23% | 1010 hPa | 0 mm | - | - | - |
| 1777752905 | 31.67° C | 32% | 1010 hPa | 0 mm | - | - | - |
| 1777752604 | 32.22° C | 28% | 1010.1 hPa | 0 mm | - | - | - |
| 1777752303 | 31.67° C | 27% | 1010.2 hPa | 0 mm | - | - | - |
| 1777751703 | 30.56° C | 32% | 1010.4 hPa | 0 mm | - | - | - |
| 1777751404 | 29.44° C | 34% | 1010.5 hPa | 0 mm | - | - | - |
| 1777751105 | 29.44° C | 37% | 1010.6 hPa | 0 mm | - | - | - |
| 1777750806 | 28.89° C | 37% | 1010.6 hPa | 0 mm | - | - | - |
| 1777750504 | 28.89° C | 36% | 1010.7 hPa | 0 mm | - | - | - |
| 1777750204 | 28.89° C | 40% | 1010.8 hPa | 0 mm | - | - | - |
| 1777749906 | 28.33° C | 36% | 1010.9 hPa | 0 mm | - | - | - |
| 1777749603 | 28.33° C | 40% | 1010.9 hPa | 0 mm | - | - | - |
| 1777749304 | 27.78° C | 40% | 1010.9 hPa | 0 mm | - | - | - |
| 1777748781 | 27.78° C | 41% | 1011.1 hPa | 0 mm | - | - | - |
| 1777748481 | 27.78° C | 42% | 1011.2 hPa | 0 mm | - | - | - |
| 1777748181 | 27.22° C | 41% | 1011.2 hPa | 0 mm | - | - | - |
| 1777747881 | 27.22° C | 45% | 1011.3 hPa | 0 mm | - | - | - |
| 1777747458 | 26.67° C | 47% | 1011.5 hPa | 0 mm | - | - | - |
| 1777747159 | 26.67° C | 45% | 1011.6 hPa | 0 mm | - | - | - |
| 1777746858 | 26.67° C | 46% | 1011.6 hPa | 0 mm | - | - | - |
| 1777746559 | 26.11° C | 48% | 1011.7 hPa | 0 mm | - | - | - |
| 1777746258 | 26.11° C | 48% | 1011.7 hPa | 0 mm | - | - | - |
* Rain latest hour (hover to see other rain measurements)
** Current wind speed in m/s (hover to see current wind gust speed)